This demonstration page uses our WeatherBlox Daily Observations layout. Learn more.

Left ArrowRight Arrow

Hourly Observations for January 24, 2020

Temp ( °F °C ) Dew Point ( °F °C ) Humidity (%) Winds ( mph kmh ) Pressure ( in mb ) Visibility ( mi km ) Precip ( " mm )
12:53 am 00:53 Cloudy 39 3.9 33 0.6 79 79 E 6 9 30.01 1016 10 16 0.00 0.00
1:53 am 01:53 Cloudy with Light Rain 39 3.9 33 0.6 79 79 Calm 30.00 1016 10 16 0.00 0.00
2:45 am 02:45 Cloudy with Light Rain 39 3.9 34 1.1 82 82 Calm 30.00 1016 10 16 0.01 0.25
2:53 am 02:53 Cloudy with Light Rain 41 5 34 1.1 76 76 ESE 5 7 29.98 1015 10 16 0.01 0.25
3:53 am 03:53 Cloudy with Light Rain 41 5 36 2.2 82 82 ESE 6 9 29.97 1015 8 13 0.02 0.51
4:53 am 04:53 Cloudy with Light Rain 41 5 38 3.3 89 89 VRB 5 7 29.96 1015 7 11 0.03 0.76
5:29 am 05:29 Cloudy with Light Rain 41 5 38 3.3 89 89 ESE 7 11 29.96 1015 8 13 0.03 0.76
5:46 am 05:46 Cloudy with Light Rain 41 5 40 4.4 96 96 ESE 8 13 29.96 1015 5 8 0.04 1.02
5:53 am 05:53 Cloudy with Light Rain 41 5 N/A N/A ESE 6 9 29.95 1014 7 11 0.04 1.02
6:03 am 06:03 Cloudy with Light Rain 41 5 N/A N/A ESE 7 11 29.95 1014 10 16 0.01 0.25
6:21 am 06:21 Cloudy with Light Rain 41 5 N/A N/A ESE 5 7 29.95 1014 10 16 0.01 0.25
6:53 am 06:53 Cloudy with Light Rain 41 5 N/A N/A E 6 9 29.93 1014 8 13 0.03 0.76
7:53 am 07:53 Cloudy with Light Rain 41 5 40 4.4 96 96 ESE 5 7 29.93 1014 5 8 0.03 0.76
8:37 am 08:37 Cloudy with Light Rain 42 5.6 40 4.4 92 92 Calm 29.94 1014 3 4 0.01 0.25
8:42 am 08:42 Cloudy with Light Rain 42 5.6 40 4.4 92 92 Calm 29.93 1014 2 2 0.01 0.25
8:47 am 08:47 Cloudy with Light Rain 43 6 41 5 93 93 E 5 7 29.93 1013 1 2 0.02 0.51
8:53 am 08:53 Cloudy with Light Rain 42 5.6 41 5 96 96 E 6 9 29.92 1013 2 2 0.02 0.51
8:59 am 08:59 Cloudy with Light Rain 42 5.6 41 5 96 96 VRB 3 6 29.93 1014 2 3 0.00 0.00
9:26 am 09:26 Cloudy with Light Rain 43 6.1 41 5 93 93 ESE 3 6 29.93 1013 4 6 0.01 0.25
9:53 am 09:53 Cloudy with Light Rain 43 6.1 42 5.6 97 97 Calm 29.93 1013 4 6 0.01 0.25
10:14 am 10:14 Cloudy with Light Rain 43 6.1 42 5.6 97 97 VRB 3 6 29.94 1014 3 4 0.01 0.25
10:24 am 10:24 Cloudy with Light Rain 43 6.1 42 5.6 97 97 SSE 3 6 29.94 1014 4 6 0.01 0.25
10:53 am 10:53 Cloudy with Light Rain 43 6.1 42 5.6 97 97 ESE 3 6 29.93 1014 4 6 0.03 0.76
11:24 am 11:24 Cloudy with Light Rain 44 6.7 43 6.1 96 96 ESE 5 7 29.92 1013 8 13 0.02 0.51
11:53 am 11:53 Cloudy with Light Rain 44 6.7 43 6.1 96 96 VRB 3 6 29.90 1013 7 11 0.02 0.51
12:04 pm 12:04 Cloudy with Light Rain 45 7.2 43 6.1 93 93 Calm 29.91 1013 7 11 0.01 0.25
12:53 pm 12:53 Cloudy with Rain 45 7.2 44 6.7 97 97 Calm 29.87 1011 3 5 0.05 1.27
1:05 pm 13:05 Cloudy with Rain 45 7.2 43 6.1 93 93 VRB 3 6 29.87 1011 4 6 0.02 0.51
1:53 pm 13:53 Cloudy with Light Rain 45 7.2 44 6.7 97 97 Calm 29.85 1011 4 6 0.07 1.78
2:24 pm 14:24 Cloudy 45 7.2 44 6.7 97 97 Calm 29.84 1010 10 16 0.02 0.51
2:36 pm 14:36 Cloudy 45 7.2 44 6.7 97 97 VRB 3 6 29.84 1010 10 16 0.02 0.51
2:53 pm 14:53 Mostly Cloudy 46 7.8 44 6.7 93 93 VRB 3 6 29.82 1010 10 16 0.02 0.51
3:24 pm 15:24 Mostly Cloudy 46 7.8 44 6.7 93 93 VRB 3 6 29.81 1010 10 16 0.00 0.00
3:53 pm 15:53 Cloudy 47 8.3 45 7.2 93 93 Calm 29.82 1010 10 16 0.00 0.00
4:02 pm 16:02 Cloudy 47 8.3 44 6.7 90 90 VRB 3 6 29.82 1010 10 16 0.00 0.00
4:17 pm 16:17 Cloudy 47 8.3 45 7.2 93 93 Calm 29.82 1010 8 13 0.00 0.00
4:21 pm 16:21 Cloudy 47 8.3 45 7.2 93 93 Calm 29.82 1010 9 14 0.00 0.00
4:28 pm 16:28 Cloudy 48 8.9 45 7.2 89 89 Calm 29.82 1010 10 16 0.00 0.00
4:53 pm 16:53 Cloudy 47 8.3 45 7.2 93 93 Calm 29.82 1010 10 16 0.00 0.00
5:29 pm 17:29 Cloudy 43 6.1 41 5 93 93 W 3 6 29.84 1010 10 16 0.03 0.76
5:53 pm 17:53 Mostly Clear 40 4.4 39 3.9 97 97 Calm 29.83 1010 10 16 0.03 0.76
6:53 pm 18:53 Clear 37 2.8 36 2.2 96 96 Calm 29.86 1011 9 14 0.00 0.00
7:50 pm 19:50 Mostly Cloudy with Mist and Fog 36 2 36 2 100 100 Calm 29.89 1012 2 2 0.00 0.00
7:53 pm 19:53 Mostly Cloudy with Mist and Fog 36 2.2 35 1.7 97 97 Calm 29.88 1012 1 2 0.00 0.00
7:57 pm 19:57 Mostly Cloudy with Mist and Fog 36 2.2 36 2.2 100 100 Calm 29.89 1012 1 1 0.00 0.00
8:04 pm 20:04 Cloudy with Mist and Fog 37 2.8 36 2.2 96 96 W 3 6 29.90 1012 2 3 0.00 0.00
8:12 pm 20:12 Cloudy with Mist and Fog 38 3.3 38 3.3 100 100 W 5 7 29.90 1012 6 10 0.00 0.00
8:53 pm 20:53 Cloudy with Light Rain 41 5 39 3.9 93 93 W 6 9 29.88 1012 10 16 0.01 0.25
9:53 pm 21:53 Cloudy with Mist and Fog 39 3.9 38 3.3 96 96 Calm 29.89 1012 6 10 0.00 0.00
10:53 pm 22:53 Cloudy 39 3.9 38 3.3 96 96 W 5 7 29.88 1012 7 11 0.00 0.00
11:11 pm 23:11 Cloudy 40 4.4 37 2.8 89 89 SW 6 9 29.90 1013 10 16 0.00 0.00
11:53 pm 23:53 Cloudy 40 4.4 37 2.8 89 89 SW 5 7 29.90 1012 10 16 0.00 0.00

Powered by AerisWeather